User: anonymous   Login
Location: Unspecified
(0.0000°N, 0.0000°E)
Time: 06:46:33
(UTC+00:00)
Language:

STARLINK-31437 - Orbit

View from above orbital plane
View from above orbital plane
View from above satellite
View from above satellite

Ground track
Ground track

The orbit is defined by the following mean orbital elements,

1 60057U          26145.11382307 +.00000000 +00000-0 +73462-4 0 00000
2 60057  53.1599  83.2852 0001188  87.3696 272.7441 15.30189586    00
Epoch (UTC): 25 May 2026 02:43:54
Eccentricity: 0.0001188
inclination: 53.1599°
perigee height: 474 km
apogee height: 476 km
right ascension of ascending node: 83.2852°
argument of perigee: 87.3696°
revolutions per day: 15.30189586
mean anomaly at epoch: 272.7441°

The dashed part of the orbit path shows where the satellite is in the earth's shadow,  

DLR